Погода в Эль Калафате

Аргентина     50°20′19″S   72°16′23″W
темп.,
°C
ветер,
м/с
пор.,
м/с
влажн.,
%
обл.,
%
осадки,
мм/ч
давл.,
гПа
погр.,
м
15 апреля, чт
чт1500:00+6сз12622 0.0 1001145
03:00+5з226878 0.0 1001175
06:00+5зюз34803 0.0 1002204
09:00+6зюз47770 0.0 1000262
12:00+10зсз49585 0.0 999598
15:00+13сз7104810 0.0 996871
18:00+12ссз49545 0.0 994501
21:00+9з34743 0.0 993148
16 апреля, пт
пт1600:00+6зюз6148520 1.5 996832
03:00+5з912735 1.6 999653
06:00+4зюз57805 0.0 1002391
09:00+5з23754 0.0 1005346
12:00+6зсз12605 0.0 1008395
15:00+7юз11555 0.0 1010517
18:00+9зюз3460100 0.0 1011516
21:00+7зюз4467100 0.0 1012207
17 апреля, сб
сб1700:00+7зюз3364100 0.0 1012147
03:00+6зюз2365100 0.0 1011128
06:00+6зюз226498 0.0 1010106
09:00+6ю006594 0.0 101074
12:00+8ю006099 0.0 1008206
15:00+8зюз1161100 0.0 1006240
18:00+9юз2265100 0.0 1004112
21:00+8зюз237286 0.0 100252
18 апреля, вс
вс1800:00+8з2280100 0.0 100167
03:00+8зюз2283100 0.0 100074
06:00+7юз1185100 0.0 99657
09:00+7зсз118688 0.0 99466
12:00+10св127638 0.0 991214
15:00+10зюз667725 0.0 989326
18:00+10юз447792 0.0 989154
21:00+9з5584100 0.0 990195
19 апреля, пн
пн1900:00+8зюз458315 0.0 990166
03:00+7з2278100 0.1 989136
06:00+7сз227766 0.6 988156
09:00+6зюз347262 0.6 991216
12:00+7зюз555949 0.0 994545
15:00+8юз435095 0.0 996636
18:00+8зюз5550100 0.1 998873
21:00+6з446397 0.1 1002247